Location: Amarillo Post Office Jordan Station
(35.1907°N, 101.9342°W)
Time: 12:49:19
(UTC+00:00)

CZ-4B R/B - Pass Details

Date: 24 January 2021
Orbit: 486 x 651 km, 97.9° (Epoch: 03 March)

Event Time Altitude Azimuth Distance (km) Brightness Sun altitude
Rises 13:04:33 0° 350° (N) 2,580 6.0 -9.9°
Reaches altitude 10° 13:07:19 10° 326° (NW) 1,712 4.9 -9.4°
Maximum altitude 13:09:25 15° 291° (WNW) 1,449 4.3 -9.0°
Drops below altitude 10° 13:11:33 10° 256° (WSW) 1,743 4.9 -8.6°
Sets 13:14:25 0° 232° (SW) 2,659 6.0 -8.0°
